Prescott, AZ

8:18 AM MST on July 26, 2017 (GMT -0700)
Love

Weather History for KPRC - November, 2014

Change the Weather History Date:

Saturday, November 1, 2014

  Actual Average Record
Temperature  
Mean Temperature 56 °F 51 °F  
Max Temperature 64 °F 66 °F 80 °F (1962)
Min Temperature 48 °F 36 °F 22 °F (1991)
Degree Days  
Heating Degree Days 9    
Month to date heating degree days 9  
Since 1 July heating degree days 151  
Cooling Degree Days 0    
Month to date cooling degree days 0  
Year to date cooling degree days 1039  
Growing Degree Days 6 (Base 50)    
Moisture  
Dew Point 41 °F    
Average Humidity 55    
Maximum Humidity 66    
Minimum Humidity 47    
Precipitation  
Precipitation 0.00 in 0.03 in 0.67 in (1987)
Month to date precipitation 0.00 0.03  
Year to date precipitation 10.20 12.12  
Sea Level Pressure  
Sea Level Pressure 29.78 in    
Wind  
Wind Speed 13 mph (South)    
Max Wind Speed 24 mph    
Max Gust Speed 33 mph    
Visibility 10 miles    
Events      
T = Trace of Precipitation, MM = Missing Value Source: NWS Daily Summary

Daily Weather History Graph

Daily Weather History Graph

Search for Another Location

Airport or City:

Trip Planner

Search our weather history database for the weather conditions in past years. The results will help you decide how hot, cold, wet, or windy it might be!

Date:

Astronomy

Nov. 01, 2014 Rise Set
Actual Time 6:50 AM MST 5:35 PM MST
Civil Twilight 6:24 AM MST 6:01 PM MST
Nautical Twilight 5:54 AM MST 6:31 PM MST
Astronomical Twilight 5:24 AM MST 7:01 PM MST
Moon 2:19 PM MST (11/1) 1:04 AM MST (11/1)
Length of Visible Light 11h 37m
Length of Day
10h 45m
Waxing Gibbous, 69% of the Moon is Illuminated
Nov 1
Waxing Gibbous
Nov 6
Full
Nov 14
Last Quarter
Nov 22
New
Nov 29
First Quarter

Hourly Weather History & Observations

Time (MST) Temp. Dew Point Humidity Pressure Visibility Wind Dir Wind Speed Gust Speed Precip Events Conditions
12:53 AM 57.9 °F 39.9 °F 51% 29.74 in 10.0 mi SSE 4.6 mph - N/A   Scattered Clouds
1:53 AM 59.0 °F 41.0 °F 51% 29.73 in 10.0 mi SE 13.8 mph - N/A   Clear
2:53 AM 57.0 °F 41.0 °F 55% 29.74 in 10.0 mi Variable 5.8 mph - N/A   Clear
3:53 AM 57.0 °F 41.0 °F 55% 29.74 in 10.0 mi Variable 6.9 mph - N/A   Clear
4:53 AM 57.0 °F 39.9 °F 53% 29.74 in 10.0 mi SE 9.2 mph - N/A   Clear
5:53 AM 55.9 °F 41.0 °F 57% 29.75 in 10.0 mi SE 16.1 mph 23.0 mph N/A   Clear
6:53 AM 55.9 °F 37.0 °F 49% 29.77 in 10.0 mi South 10.4 mph 19.6 mph N/A   Clear
7:53 AM 55.9 °F 39.9 °F 55% 29.81 in 10.0 mi SSW 15.0 mph 23.0 mph N/A   Clear
8:53 AM 57.0 °F 42.1 °F 57% 29.83 in 10.0 mi SSW 12.7 mph - N/A   Mostly Cloudy
9:53 AM 59.0 °F 39.0 °F 48% 29.81 in 10.0 mi SSW 17.3 mph 24.2 mph N/A   Mostly Cloudy
10:53 AM 59.0 °F 43.0 °F 55% 29.83 in 10.0 mi SSW 8.1 mph 19.6 mph N/A   Mostly Cloudy
11:53 AM 60.1 °F 44.1 °F 55% 29.81 in 10.0 mi South 15.0 mph 24.2 mph N/A   Mostly Cloudy
12:53 PM 62.1 °F 45.0 °F 53% 29.78 in 10.0 mi SSW 13.8 mph 28.8 mph N/A   Overcast
1:53 PM 63.0 °F 45.0 °F 52% 29.76 in 10.0 mi South 20.7 mph 29.9 mph N/A   Mostly Cloudy
2:53 PM 62.1 °F 43.0 °F 50% 29.75 in 10.0 mi South 19.6 mph 28.8 mph N/A   Mostly Cloudy
3:53 PM 61.0 °F 41.0 °F 48% 29.75 in 10.0 mi South 23.0 mph 32.2 mph N/A   Partly Cloudy
4:53 PM 59.0 °F 41.0 °F 51% 29.77 in 10.0 mi South 11.5 mph 23.0 mph N/A   Scattered Clouds
5:53 PM 57.0 °F 41.0 °F 55% 29.78 in 10.0 mi SSE 9.2 mph - N/A   Scattered Clouds
6:53 PM 57.0 °F 39.9 °F 53% 29.78 in 10.0 mi SSE 9.2 mph - N/A   Mostly Cloudy
7:53 PM 55.0 °F 39.9 °F 57% 29.79 in 10.0 mi South 10.4 mph - N/A   Mostly Cloudy
8:53 PM 55.0 °F 43.0 °F 64% 29.78 in 10.0 mi South 11.5 mph 21.9 mph N/A   Clear
9:53 PM 50.0 °F 37.9 °F 63% 29.81 in 10.0 mi SW 10.4 mph - N/A   Clear
10:53 PM 48.9 °F 37.0 °F 64% 29.81 in 10.0 mi SSW 12.7 mph - N/A   Clear
11:53 PM 48.9 °F 36.0 °F 61% 29.80 in 10.0 mi SW 15.0 mph - N/A   Clear